When you browse on this site, cookies collect data to enhance your experience and personalize the content and advertising you see.
Visit our Privacy Policy to learn more. By continuing to use the site, you agree to this use of cookies and data.

Previsão horária em Ballycastle

Hoje, 4 Agosto, Terça-feira

Tempo Temperatura Precipitação Vento Pressão Humidade
00:00 +11°C° 0 mm 3 m/s 756 mmHg 85%
01:00 +11°C° 0.6 mm 4 m/s 756 mmHg 88%
02:00 +10°C° 0.6 mm 5 m/s 755 mmHg 91%
03:00 +10°C° 0.6 mm 6 m/s 754 mmHg 94%
04:00 +10°C° 3.3 mm 7 m/s 753 mmHg 94%
05:00 +10°C° 3.3 mm 9 m/s 752 mmHg 95%
06:00 +9°C° 3.3 mm 10 m/s 751 mmHg 95%
07:00 +11°C° 2.8 mm 10 m/s 750 mmHg 95%
08:00 +12°C° 2.8 mm 9 m/s 750 mmHg 95%
09:00 +13°C° 2.8 mm 9 m/s 749 mmHg 95%
10:00 +15°C° 2.1 mm 9 m/s 749 mmHg 95%
11:00 +15°C° 2.1 mm 8 m/s 748 mmHg 95%
12:00 +16°C° 2.1 mm 8 m/s 747 mmHg 94%
13:00 +17°C° 0.6 mm 8 m/s 747 mmHg 94%
14:00 +17°C° 0.6 mm 8 m/s 747 mmHg 93%
15:00 +17°C° 0.6 mm 8 m/s 747 mmHg 92%
16:00 +17°C° 1.4 mm 8 m/s 746 mmHg 93%
17:00 +17°C° 1.4 mm 8 m/s 746 mmHg 93%
18:00 +17°C° 1.4 mm 8 m/s 746 mmHg 94%
19:00 +17°C° 0.3 mm 7 m/s 746 mmHg 94%
20:00 +16°C° 0.3 mm 7 m/s 746 mmHg 94%
21:00 +16°C° 0.3 mm 6 m/s 746 mmHg 94%
22:00 +16°C° 0.1 mm 6 m/s 746 mmHg 94%
23:00 +16°C° 0.1 mm 5 m/s 746 mmHg 94%

Amanhã, 5 Agosto, Quarta-feira

Tempo Temperatura Precipitação Vento Pressão Humidade
00:00 +15°C° 0.1 mm 5 m/s 746 mmHg 94%
01:00 +15°C° 0 mm 5 m/s 746 mmHg 94%
02:00 +14°C° 0 mm 5 m/s 746 mmHg 94%
03:00 +14°C° 0 mm 4 m/s 746 mmHg 93%
04:00 +14°C° 0 mm 4 m/s 746 mmHg 93%
05:00 +14°C° 0 mm 4 m/s 746 mmHg 94%
06:00 +15°C° 0 mm 4 m/s 746 mmHg 94%
07:00 +16°C° 0.3 mm 3 m/s 747 mmHg 94%
08:00 +16°C° 0.3 mm 3 m/s 747 mmHg 95%
09:00 +16°C° 0.3 mm 2 m/s 748 mmHg 95%
10:00 +16°C° 1.1 mm 2 m/s 748 mmHg 96%
11:00 +16°C° 1.1 mm 2 m/s 748 mmHg 96%
12:00 +16°C° 1.1 mm 1 m/s 748 mmHg 97%
13:00 +16°C° 1 mm 1 m/s 748 mmHg 95%
14:00 +17°C° 1 mm 2 m/s 749 mmHg 93%
15:00 +17°C° 1 mm 2 m/s 749 mmHg 91%
16:00 +17°C° 0 mm 2 m/s 749 mmHg 91%
17:00 +17°C° 0 mm 2 m/s 750 mmHg 90%
18:00 +19°C° 0 mm 1 m/s 750 mmHg 89%
19:00 +18°C° 0 mm 1 m/s 751 mmHg 91%
20:00 +16°C° 0 mm 1 m/s 751 mmHg 92%
21:00 +15°C° 0 mm 1 m/s 752 mmHg 94%
22:00 +15°C° 0 mm 1 m/s 752 mmHg 94%
23:00 +14°C° 0 mm 1 m/s 752 mmHg 94%

Depois de amanhã, 6 Agosto, Quinta-feira

Tempo Temperatura Precipitação Vento Pressão Humidade
00:00 +13°C° 0 mm 0 m/s 753 mmHg 95%
01:00 +14°C° 0 mm 1 m/s 753 mmHg 95%
02:00 +14°C° 0 mm 1 m/s 753 mmHg 95%
03:00 +14°C° 0 mm 1 m/s 754 mmHg 95%
04:00 +14°C° 0 mm 1 m/s 754 mmHg 95%
05:00 +14°C° 0 mm 2 m/s 754 mmHg 95%
06:00 +14°C° 0 mm 2 m/s 754 mmHg 96%
07:00 +16°C° 0 mm 3 m/s 754 mmHg 94%
08:00 +17°C° 0 mm 4 m/s 754 mmHg 92%
09:00 +18°C° 0 mm 4 m/s 755 mmHg 89%
10:00 +17°C° 0 mm 5 m/s 755 mmHg 86%
11:00 +19°C° 0 mm 6 m/s 755 mmHg 82%
12:00 +20°C° 0 mm 6 m/s 755 mmHg 79%
13:00 +20°C° 0 mm 6 m/s 755 mmHg 80%
14:00 +20°C° 0 mm 6 m/s 755 mmHg 81%
15:00 +21°C° 0 mm 7 m/s 755 mmHg 82%
16:00 +20°C° 0 mm 7 m/s 755 mmHg 84%
17:00 +20°C° 0 mm 6 m/s 755 mmHg 85%
18:00 +20°C° 0 mm 6 m/s 755 mmHg 87%
19:00 +19°C° 0 mm 6 m/s 755 mmHg 89%
20:00 +17°C° 0 mm 5 m/s 755 mmHg 91%
21:00 +16°C° 0 mm 5 m/s 756 mmHg 94%
22:00 +17°C° 0 mm 4 m/s 756 mmHg 94%
23:00 +15°C° 0 mm 4 m/s 756 mmHg 94%

7 Agosto, Sexta-feira

Tempo Temperatura Precipitação Vento Pressão Humidade
00:00 +15°C° 0 mm 4 m/s 756 mmHg 95%
01:00 +15°C° 0 mm 4 m/s 756 mmHg 95%
02:00 +14°C° 0 mm 4 m/s 756 mmHg 96%
03:00 +14°C° 0 mm 4 m/s 756 mmHg 96%
04:00 +14°C° 0 mm 4 m/s 757 mmHg 96%
05:00 +14°C° 0 mm 4 m/s 757 mmHg 96%
06:00 +14°C° 0 mm 4 m/s 757 mmHg 96%
07:00 +15°C° 0 mm 4 m/s 757 mmHg 93%
08:00 +17°C° 0 mm 4 m/s 757 mmHg 90%
09:00 +17°C° 0 mm 5 m/s 757 mmHg 87%
10:00 +19°C° 0 mm 5 m/s 757 mmHg 85%
11:00 +19°C° 0 mm 6 m/s 757 mmHg 83%
12:00 +20°C° 0 mm 6 m/s 757 mmHg 81%
13:00 +20°C° 0 mm 6 m/s 757 mmHg 81%
14:00 +20°C° 0 mm 6 m/s 757 mmHg 81%
15:00 +20°C° 0 mm 7 m/s 757 mmHg 81%
16:00 +20°C° 0.5 mm 6 m/s 757 mmHg 84%
17:00 +20°C° 0.5 mm 6 m/s 757 mmHg 87%
18:00 +19°C° 0.5 mm 6 m/s 757 mmHg 91%
19:00 +17°C° 1.3 mm 5 m/s 757 mmHg 92%
20:00 +17°C° 1.3 mm 4 m/s 758 mmHg 94%
21:00 +16°C° 1.3 mm 3 m/s 758 mmHg 96%
22:00 +14°C° 0 mm 3 m/s 759 mmHg 96%
23:00 +13°C° 0 mm 4 m/s 759 mmHg 96%

8 Agosto, Sábado

Tempo Temperatura Precipitação Vento Pressão Humidade
00:00 +13°C° 0 mm 4 m/s 760 mmHg 96%
01:00 +12°C° 0 mm 4 m/s 760 mmHg 95%
02:00 +12°C° 0 mm 5 m/s 760 mmHg 95%
03:00 +12°C° 0 mm 5 m/s 760 mmHg 94%
04:00 +12°C° 0 mm 5 m/s 761 mmHg 94%
05:00 +12°C° 0 mm 5 m/s 762 mmHg 94%
06:00 +12°C° 0 mm 5 m/s 762 mmHg 95%
07:00 +13°C° 0 mm 5 m/s 763 mmHg 92%
08:00 +13°C° 0 mm 5 m/s 763 mmHg 88%
09:00 +14°C° 0 mm 5 m/s 764 mmHg 85%
10:00 +14°C° 0 mm 5 m/s 764 mmHg 83%
11:00 +15°C° 0 mm 5 m/s 764 mmHg 80%
12:00 +15°C° 0 mm 5 m/s 765 mmHg 77%
13:00 +15°C° 0 mm 5 m/s 765 mmHg 76%
14:00 +15°C° 0 mm 5 m/s 765 mmHg 76%
15:00 +15°C° 0 mm 5 m/s 765 mmHg 76%
16:00 +15°C° 0 mm 5 m/s 765 mmHg 77%
17:00 +14°C° 0 mm 5 m/s 766 mmHg 79%
18:00 +14°C° 0 mm 4 m/s 766 mmHg 80%
19:00 +13°C° 0 mm 4 m/s 766 mmHg 84%
20:00 +12°C° 0 mm 3 m/s 766 mmHg 87%
21:00 +11°C° 0 mm 3 m/s 766 mmHg 90%
22:00 +10°C° 0 mm 3 m/s 767 mmHg 90%
23:00 +10°C° 0 mm 3 m/s 767 mmHg 90%

9 Agosto, Domingo

Tempo Temperatura Precipitação Vento Pressão Humidade
00:00 +10°C° 0 mm 2 m/s 767 mmHg 90%
01:00 +10°C° 0 mm 2 m/s 767 mmHg 90%
02:00 +10°C° 0 mm 2 m/s 766 mmHg 90%
03:00 +10°C° 0 mm 1 m/s 766 mmHg 90%
04:00 +11°C° 0 mm 1 m/s 766 mmHg 89%
05:00 +11°C° 0 mm 1 m/s 766 mmHg 88%
06:00 +11°C° 0 mm 1 m/s 766 mmHg 88%
07:00 +13°C° 0 mm 1 m/s 766 mmHg 84%
08:00 +14°C° 0 mm 1 m/s 766 mmHg 80%
09:00 +15°C° 0 mm 1 m/s 766 mmHg 76%
10:00 +16°C° 0 mm 2 m/s 766 mmHg 76%
11:00 +16°C° 0 mm 2 m/s 766 mmHg 77%
12:00 +17°C° 0 mm 3 m/s 766 mmHg 77%
13:00 +17°C° 0 mm 3 m/s 766 mmHg 77%
14:00 +18°C° 0 mm 3 m/s 765 mmHg 76%
15:00 +18°C° 0 mm 3 m/s 765 mmHg 76%
16:00 +18°C° 0 mm 3 m/s 765 mmHg 77%
17:00 +17°C° 0 mm 3 m/s 765 mmHg 79%
18:00 +17°C° 0 mm 2 m/s 765 mmHg 80%
19:00 +16°C° 0 mm 2 m/s 765 mmHg 81%
20:00 +14°C° 0 mm 2 m/s 764 mmHg 82%
21:00 +13°C° 0 mm 2 m/s 764 mmHg 83%
22:00 +13°C° 0 mm 1 m/s 764 mmHg 83%
23:00 +13°C° 0 mm 1 m/s 764 mmHg 83%
Mostrar mais